FW1417 Weather Reports


Display with metric or nautical units.
time (UTC)temp
F
wind
direction
speed
MPH
gust
MPH
rain 1hr
in
rain 24hr
in
rain mn
in
humidity
%
barometer
mb
20260503040207 54 5 4.0 13.0 0.00 0.01 0.00 36 1007.6
20260503034706 54 331 6.0 12.0 0.00 0.01 0.01 35 1007.6
20260503034207 54 36 3.0 12.0 0.00 0.01 0.01 35 1007.4
20260503033706 54 250 5.0 13.0 0.00 0.01 0.01 35 1007.4
20260503032707 54 298 5.0 13.0 0.00 0.01 0.01 35 1007.4
20260503032206 54 329 8.0 13.0 0.00 0.01 0.01 34 1007.4
20260503031707 54 5 6.0 13.0 0.00 0.01 0.01 35 1007.4
20260503031206 54 32 5.0 12.0 0.00 0.01 0.01 35 1007.5
20260503030706 55 355 4.0 14.0 0.00 0.01 0.01 35 1007.5
20260503030206 55 329 5.0 14.0 0.00 0.01 0.01 34 1007.6
20260503025706 55 304 4.0 12.0 0.00 0.01 0.01 34 1007.7
20260503025206 55 262 5.0 12.0 0.00 0.01 0.01 34 1007.8
20260503024707 55 34 3.0 12.0 0.00 0.01 0.01 35 1007.7
20260503024207 55 317 4.0 9.0 0.00 0.01 0.01 36 1007.6
20260503023706 55 328 3.0 9.0 0.00 0.01 0.01 35 1007.6
20260503022206 55 298 3.0 12.0 0.00 0.01 0.01 35 1007.5
20260503021706 55 355 5.0 12.0 0.00 0.01 0.01 35 1007.5
20260503021207 55 269 5.0 12.0 0.00 0.01 0.01 35 1007.6
20260503020707 55 326 3.0 10.0 0.00 0.01 0.01 35 1007.8
20260503020207 56 329 5.0 12.0 0.00 0.01 0.01 34 1007.7
20260503015706 56 333 5.0 12.0 0.00 0.01 0.01 34 1007.8
20260503015206 56 307 5.0 12.0 0.00 0.01 0.01 34 1007.8
20260503014706 56 319 4.0 12.0 0.00 0.01 0.01 34 1008.0
20260503014207 56 338 5.0 12.0 0.00 0.01 0.01 33 1007.9
20260503013706 56 317 5.0 13.0 0.00 0.01 0.01 33 1007.8
20260503013206 56 347 5.0 13.0 0.00 0.01 0.01 34 1007.9
20260503012706 56 11 3.0 12.0 0.00 0.01 0.01 34 1007.9
20260503012206 56 4 3.0 12.0 0.00 0.01 0.01 34 1007.8
20260503011707 56 302 3.0 10.0 0.00 0.01 0.01 34 1007.7
20260503011206 56 320 6.0 10.0 0.00 0.01 0.01 34 1007.8
20260503010706 57 275 5.0 12.0 0.00 0.01 0.01 34 1007.7
20260503010206 57 315 5.0 12.0 0.00 0.01 0.01 34 1007.6
20260503005706 57 343 6.0 12.0 0.00 0.01 0.01 34 1007.5
20260503005206 57 338 4.0 9.0 0.00 0.01 0.01 34 1007.4
20260503004706 57 329 4.0 9.0 0.00 0.01 0.01 33 1007.4
20260503004206 57 24 3.0 10.0 0.00 0.01 0.01 33 1007.3
20260503003706 57 23 3.0 12.0 0.00 0.01 0.01 33 1007.2
20260503003206 57 317 6.0 12.0 0.00 0.01 0.01 33 1007.2
20260503002206 57 337 5.0 15.0 0.00 0.01 0.01 32 1007.2
20260503001705 58 289 5.0 15.0 0.00 0.01 0.01 33 1007.1
20260503001206 58 310 4.0 10.0 0.00 0.01 0.01 32 1007.0
20260503000706 58 276 3.0 10.0 0.00 0.01 0.01 32 1007.0
20260502235206 59 5 5.0 13.0 0.00 0.01 0.01 32 1006.9
20260502234706 59 290 6.0 13.0 0.00 0.01 0.01 31 1006.9
20260502233706 59 335 6.0 12.0 0.00 0.01 0.01 31 1006.7
20260502233206 59 254 4.0 12.0 0.00 0.01 0.01 31 1006.6
20260502232206 60 274 4.0 10.0 0.00 0.01 0.01 31 1006.5
20260502231706 60 210 5.0 10.0 0.00 0.01 0.01 31 1006.5
20260502231207 60 311 2.0 12.0 0.00 0.01 0.01 31 1006.5
20260502230706 60 244 2.0 12.0 0.00 0.01 0.01 31 1006.5
20260502230206 61 244 5.0 12.0 0.00 0.01 0.01 30 1006.5
20260502225205 61 1 3.0 12.0 0.00 0.01 0.01 30 1006.4
20260502224706 61 209 3.0 12.0 0.00 0.01 0.01 30 1006.3
20260502224206 61 269 2.0 12.0 0.00 0.01 0.01 31 1006.2
20260502223706 61 262 1.0 12.0 0.00 0.01 0.01 30 1006.3
20260502223206 61 284 3.0 8.0 0.00 0.01 0.01 30 1006.4
20260502222705 61 232 3.0 8.0 0.00 0.01 0.01 30 1006.3
20260502222206 61 252 3.0 8.0 0.00 0.01 0.01 30 1006.3
20260502221705 61 316 2.0 9.0 0.00 0.01 0.01 31 1006.3
20260502221206 61 288 3.0 10.0 0.00 0.01 0.01 30 1006.4
20260502220705 61 310 4.0 10.0 0.00 0.01 0.01 30 1006.4
20260502220206 62 283 3.0 10.0 0.00 0.01 0.01 30 1006.3
20260502215706 62 223 3.0 9.0 0.00 0.01 0.01 30 1006.3
20260502215206 63 323 3.0 9.0 0.00 0.01 0.01 30 1006.3
20260502214706 62 268 3.0 12.0 0.00 0.01 0.01 30 1006.2
20260502214206 62 256 2.0 12.0 0.00 0.01 0.01 29 1006.2
20260502213707 63 293 6.0 12.0 0.00 0.01 0.01 29 1006.3
20260502213206 63 334 5.0 12.0 0.00 0.01 0.01 29 1006.1
20260502212707 63 279 2.0 8.0 0.00 0.01 0.01 29 1006.1
20260502211705 62 261 4.0 12.0 0.00 0.01 0.01 30 1006.1
20260502211206 62 244 6.0 12.0 0.00 0.01 0.01 30 1006.0
20260502210706 62 244 2.0 9.0 0.00 0.01 0.01 30 1006.0
20260502210206 62 303 3.0 9.0 0.00 0.01 0.01 31 1006.1
20260502205706 62 277 4.0 9.0 0.00 0.01 0.01 30 1006.1
20260502205206 62 240 3.0 9.0 0.00 0.01 0.01 30 1006.0
20260502204706 62 253 3.0 9.0 0.00 0.01 0.01 30 1006.0
20260502204206 62 298 2.0 10.0 0.00 0.01 0.01 31 1006.0
20260502203705 62 256 5.0 10.0 0.00 0.01 0.01 30 1006.0
20260502203206 62 266 1.0 8.0 0.00 0.01 0.01 31 1006.1
20260502202706 63 286 3.0 8.0 0.00 0.01 0.01 31 1006.2
20260502202206 63 296 5.0 9.0 0.00 0.01 0.01 31 1006.3
20260502201705 63 316 5.0 10.0 0.00 0.01 0.01 32 1006.4
20260502201206 62 267 4.0 12.0 0.00 0.01 0.01 33 1006.3
20260502200706 61 118 3.0 12.0 0.00 0.01 0.01 34 1006.3
20260502200206 62 293 3.0 12.0 0.00 0.01 0.01 33 1006.5
20260502195706 62 273 3.0 12.0 0.00 0.01 0.01 33 1006.5
20260502195206 63 274 3.0 10.0 0.00 0.01 0.01 33 1006.6
20260502194707 63 288 3.0 10.0 0.00 0.01 0.01 33 1006.6
20260502194205 63 274 3.0 10.0 0.00 0.01 0.01 32 1006.6
20260502193707 62 256 2.0 10.0 0.00 0.01 0.01 32 1006.7
20260502193206 62 259 3.0 16.0 0.00 0.01 0.01 33 1006.7
20260502192706 62 251 6.0 16.0 0.00 0.01 0.01 33 1006.8
20260502192205 63 162 2.0 12.0 0.00 0.01 0.01 35 1006.9
20260502191705 62 284 4.0 12.0 0.00 0.01 0.01 36 1007.1
20260502190705 62 332 5.0 12.0 0.00 0.01 0.01 37 1007.1
20260502185706 62 83 1.0 7.0 0.00 0.01 0.01 37 1007.2
20260502185207 62 70 3.0 10.0 0.00 0.01 0.01 37 1007.5
20260502184206 61 176 5.0 12.0 0.00 0.01 0.01 38 1007.7
20260502183206 64 270 4.0 12.0 0.00 0.01 0.01 37 1007.8
20260502182707 64 332 3.0 8.0 0.00 0.01 0.01 38 1007.8
20260502182206 63 209 3.0 10.0 0.00 0.01 0.01 39 1007.9
20260502181706 62 228 3.0 10.0 0.00 0.01 0.01 39 1007.9
20260502181206 62 261 5.0 10.0 0.00 0.01 0.01 39 1007.9
20260502180705 62 257 3.0 10.0 0.00 0.01 0.01 40 1007.8
20260502180206 62 329 3.0 12.0 0.00 0.01 0.01 40 1007.9
20260502170205 59 269 3.0 13.0 0.00 0.01 0.01 46 1008.3
20260502164205 59 304 2.0 9.0 0.00 0.01 0.01 50 1008.7
20260502163707 58 322 3.0 12.0 0.00 0.01 0.01 51 1008.7
20260502163205 58 293 4.0 12.0 0.00 0.01 0.01 50 1008.7
20260502162705 57 296 5.0 13.0 0.00 0.01 0.01 52 1008.8
20260502162205 57 250 3.0 13.0 0.00 0.01 0.01 53 1008.7
20260502161706 57 240 3.0 13.0 0.00 0.01 0.01 53 1008.6
20260502160205 57 347 3.0 8.0 0.00 0.01 0.01 55 1008.7
20260502152206 55 224 3.0 10.0 0.00 0.01 0.01 64 1008.9
20260502151815 54 273 4.0 10.0 0.00 0.01 0.01 65 1008.9
20260502150206 55 252 4.0 10.0 0.00 0.01 0.01 66 1009.0
20260502130705 54 274 2.0 6.0 0.00 0.01 0.01 71 1009.2
20260502130205 54 257 1.0 6.0 0.00 0.01 0.01 71 1009.2
20260502123705 53 246 1.0 7.0 0.00 0.01 0.01 73 1009.1
20260502122705 53 286 1.0 3.0 0.00 0.01 0.01 74 1009.0
20260502122205 53 319 1.0 3.0 0.00 0.01 0.01 74 1009.0
20260502121705 53 288 1.0 3.0 0.00 0.01 0.01 75 1008.9
20260502121205 53 275 0.0 2.0 0.00 0.01 0.01 75 1008.9
20260502120205 53 275 1.0 3.0 0.00 0.01 0.01 75 1009.0
20260502115705 53 275 2.0 3.0 0.00 0.01 0.01 75 1008.8
20260502114704 52 340 0.0 2.0 0.00 0.01 0.01 76 1008.8
20260502114206 52 340 1.0 2.0 0.00 0.01 0.01 76 1008.8
20260502113706 52 340 0.0 1.0 0.00 0.01 0.01 77 1008.8
20260502113205 52 340 0.0 1.0 0.00 0.01 0.01 77 1008.7
20260502112705 52 340 0.0 2.0 0.00 0.01 0.01 77 1008.8
20260502112205 52 340 0.0 2.0 0.00 0.01 0.01 77 1008.8
20260502111205 52 340 0.0 2.0 0.00 0.01 0.01 77 1008.8
20260502110705 52 340 0.0 2.0 0.00 0.01 0.01 77 1008.8
20260502110205 52 340 0.0 2.0 0.00 0.01 0.01 77 1008.7
20260502105705 52 340 1.0 3.0 0.00 0.01 0.01 77 1008.7
20260502105205 52 348 1.0 3.0 0.00 0.01 0.01 77 1008.4
20260502104704 52 346 1.0 3.0 0.00 0.01 0.01 77 1008.3
20260502103706 52 348 1.0 3.0 0.01 0.01 0.01 77 1008.1
20260502103205 52 0 1.0 3.0 0.01 0.01 0.01 76 1008.1
20260502102705 52 336 0.0 3.0 0.01 0.01 0.01 76 1008.1
20260502102205 52 350 1.0 3.0 0.01 0.01 0.01 76 1008.1
20260502101204 52 30 1.0 3.0 0.01 0.01 0.01 75 1007.9
20260502100704 52 37 1.0 3.0 0.01 0.01 0.01 74 1008.1
20260502100204 52 337 1.0 5.0 0.01 0.01 0.01 74 1008.0
20260502091204 53 261 2.0 7.0 0.00 0.00 0.00 72 1008.4
20260502090705 53 198 2.0 7.0 0.00 0.00 0.00 72 1008.4
20260502090205 53 205 2.0 5.0 0.00 0.00 0.00 72 1008.4
20260502071205 55 184 3.0 6.0 0.00 0.00 0.00 65 1007.9
20260502065704 55 146 2.0 7.0 0.00 0.00 0.00 64 1008.0
20260502065206 55 142 0.0 6.0 0.00 0.00 0.00 64 1008.0
20260502064205 55 146 2.0 9.0 0.00 0.00 0.00 63 1008.3
20260502062705 55 188 3.0 8.0 0.00 0.00 0.00 62 1008.4
20260502061704 55 182 2.0 6.0 0.00 0.00 0.00 62 1008.4
20260502061204 55 190 1.0 5.0 0.00 0.00 0.00 62 1008.6
20260502060704 55 175 2.0 6.0 0.00 0.00 0.00 62 1008.5
20260502055704 55 173 3.0 7.0 0.00 0.00 0.00 61 1008.5
20260502055204 56 158 1.0 5.0 0.00 0.00 0.00 61 1008.4
20260502054704 56 178 1.0 5.0 0.00 0.00 0.00 60 1008.4
20260502054204 56 159 2.0 5.0 0.00 0.00 0.00 60 1008.5
20260502053205 56 157 2.0 6.0 0.00 0.00 0.00 60 1008.5
20260502052704 56 136 2.0 6.0 0.00 0.00 0.00 60 1008.4
20260502052205 56 160 3.0 5.0 0.00 0.00 0.00 60 1008.6
20260502051705 56 151 2.0 5.0 0.00 0.00 0.00 60 1008.6
20260502051204 56 217 2.0 5.0 0.00 0.00 0.00 59 1008.5
20260502050704 56 177 2.0 6.0 0.00 0.00 0.00 59 1008.5
20260502050204 56 200 2.0 6.0 0.00 0.00 0.00 59 1008.4
20260502045706 56 168 2.0 6.0 0.00 0.00 0.00 59 1008.5
20260502044706 56 167 3.0 6.0 0.00 0.00 0.00 58 1008.3
20260502044207 56 185 2.0 6.0 0.00 0.00 0.00 58 1008.2
20260502041706 56 201 4.0 10.0 0.00 0.00 0.00 59 1008.7